User: anonymous   Login
Location: Zlin
(49.2330°N, 17.6670°E)
Time: 10:29:08
(UTC+02:00)
Language:

ISS - Orbit

View from above orbital plane
View from above orbital plane
View from above satellite
View from above satellite

Ground track
Ground track

The orbit data is extracted from the following two-line orbital elements,

1 25544U 98067A   15141.81244420  .00015763  00000-0  23603-3 0  9996
2 25544 051.6452 215.7190 0003813 326.3966 139.7728 15.55139857943934
Epoch (UTC): 21 May 2015 19:29:55
Eccentricity: 0.0003813
inclination: 51.6452°
perigee height: 399 km
apogee height: 404 km
right ascension of ascending node: 215.7190°
argument of perigee: 326.3966°
revolutions per day: 15.55139857
mean anomaly at epoch: 139.7728°
orbit number at epoch: 94393

The dashed part of the orbit path shows where the satellite is in the earth's shadow,  

DLR